CARTOSAT-2B

Last updated on Wed Oct 15 2025 00:02:29 GMT+0000 (Coordinated Universal Time)

1 36795U 10035A 25287.84095013 -.00000039 00000+0 15068-5 0 9990 2 36795 97.7944 338.7542 0010470 267.3900 92.6113 14.78726465823592
UTC large
Height (km)
Speed (km/s)
/
Latitude / Longitude
Inclination (degrees)
Orbital Period (minutes)
Azimuth
Elevation
Range (km)
Doppler Factor

Next 0 passes for location: London (51.5072 / 0.1276)

Sorry there are no passes over London.